• In Czech Republic
  • List of Countries
  • For 7 days
  • Water Temperature
  • Satellite Maps
  • Weather Map
  • Weather Widgets
  • user-avatar
    Login

    Hourly Weather Kokchetaw

    Today, 25 September, Tuesday

    Time Temperature Precipitation Wind Pressure Humidity
    00:00 +10°C° 0 mm 3 mps 745 mmHg 72%
    01:00 +10°C° 0 mm 3 mps 745 mmHg 72%
    02:00 +10°C° 0 mm 3 mps 745 mmHg 71%
    03:00 +9°C° 0 mm 3 mps 745 mmHg 72%
    04:00 +9°C° 0 mm 3 mps 745 mmHg 72%
    05:00 +8°C° 0 mm 4 mps 745 mmHg 73%
    06:00 +10°C° 0 mm 4 mps 746 mmHg 71%
    07:00 +11°C° 0 mm 4 mps 746 mmHg 70%
    08:00 +11°C° 0 mm 4 mps 746 mmHg 68%
    09:00 +13°C° 0 mm 4 mps 746 mmHg 63%
    10:00 +15°C° 0 mm 5 mps 746 mmHg 57%
    11:00 +17°C° 0 mm 5 mps 746 mmHg 51%
    12:00 +19°C° 0 mm 5 mps 747 mmHg 49%
    13:00 +20°C° 0 mm 5 mps 747 mmHg 47%
    14:00 +20°C° 0 mm 5 mps 747 mmHg 45%
    15:00 +20°C° 0 mm 4 mps 747 mmHg 48%
    16:00 +19°C° 0 mm 3 mps 747 mmHg 52%
    17:00 +19°C° 0 mm 3 mps 747 mmHg 56%
    18:00 +17°C° 0 mm 3 mps 747 mmHg 59%
    19:00 +16°C° 0 mm 3 mps 747 mmHg 62%
    20:00 +13°C° 0 mm 3 mps 747 mmHg 65%
    21:00 +13°C° 0 mm 3 mps 747 mmHg 66%
    22:00 +13°C° 0 mm 3 mps 747 mmHg 66%
    23:00 +12°C° 0 mm 3 mps 747 mmHg 66%

    Tomorrow, 26 September, Wednesday

    Time Temperature Precipitation Wind Pressure Humidity
    00:00 +12°C° 0 mm 3 mps 747 mmHg 66%
    01:00 +12°C° 0 mm 3 mps 748 mmHg 67%
    02:00 +11°C° 0 mm 3 mps 748 mmHg 67%
    03:00 +11°C° 0 mm 3 mps 748 mmHg 67%
    04:00 +11°C° 0 mm 3 mps 748 mmHg 68%
    05:00 +11°C° 0 mm 3 mps 748 mmHg 68%
    06:00 +11°C° 0 mm 3 mps 748 mmHg 68%
    07:00 +12°C° 0 mm 3 mps 749 mmHg 67%
    08:00 +13°C° 0 mm 3 mps 749 mmHg 66%
    09:00 +16°C° 0 mm 3 mps 749 mmHg 60%
    10:00 +18°C° 0 mm 3 mps 749 mmHg 54%
    11:00 +20°C° 0 mm 3 mps 749 mmHg 48%
    12:00 +20°C° 0 mm 3 mps 749 mmHg 46%
    13:00 +21°C° 0 mm 4 mps 749 mmHg 43%
    14:00 +22°C° 0 mm 4 mps 749 mmHg 41%
    15:00 +21°C° 0 mm 3 mps 749 mmHg 45%
    16:00 +21°C° 0 mm 3 mps 748 mmHg 48%
    17:00 +20°C° 0 mm 2 mps 748 mmHg 52%
    18:00 +19°C° 0 mm 2 mps 748 mmHg 55%
    19:00 +17°C° 0 mm 2 mps 748 mmHg 58%
    20:00 +16°C° 0 mm 2 mps 748 mmHg 61%
    21:00 +15°C° 0 mm 2 mps 748 mmHg 62%
    22:00 +15°C° 0 mm 2 mps 748 mmHg 63%
    23:00 +15°C° 0 mm 2 mps 748 mmHg 64%

    Day after tomorrow, 27 September, Thursday

    Time Temperature Precipitation Wind Pressure Humidity
    00:00 +13°C° 0 mm 3 mps 748 mmHg 64%
    01:00 +13°C° 0 mm 3 mps 748 mmHg 65%
    02:00 +13°C° 0 mm 3 mps 748 mmHg 66%
    03:00 +13°C° 0 mm 3 mps 748 mmHg 67%
    04:00 +12°C° 0 mm 3 mps 748 mmHg 68%
    05:00 +12°C° 0 mm 3 mps 748 mmHg 68%
    06:00 +13°C° 0 mm 3 mps 748 mmHg 68%
    07:00 +13°C° 0 mm 3 mps 748 mmHg 67%
    08:00 +14°C° 0 mm 3 mps 748 mmHg 67%
    09:00 +17°C° 0 mm 3 mps 748 mmHg 61%
    10:00 +19°C° 0 mm 3 mps 748 mmHg 55%
    11:00 +21°C° 0 mm 3 mps 747 mmHg 49%
    12:00 +21°C° 0 mm 4 mps 747 mmHg 47%
    13:00 +22°C° 0 mm 4 mps 747 mmHg 45%
    14:00 +23°C° 0 mm 4 mps 746 mmHg 42%
    15:00 +22°C° 0 mm 4 mps 746 mmHg 45%
    16:00 +21°C° 0 mm 3 mps 745 mmHg 49%
    17:00 +21°C° 0 mm 3 mps 745 mmHg 52%
    18:00 +19°C° 0 mm 3 mps 745 mmHg 55%
    19:00 +17°C° 0 mm 4 mps 744 mmHg 58%
    20:00 +15°C° 0 mm 4 mps 744 mmHg 60%
    21:00 +14°C° 0 mm 4 mps 743 mmHg 61%
    22:00 +14°C° 0 mm 4 mps 743 mmHg 61%
    23:00 +14°C° 0 mm 4 mps 743 mmHg 61%

    28 September, Friday

    Time Temperature Precipitation Wind Pressure Humidity
    00:00 +13°C° 0 mm 4 mps 742 mmHg 64%
    01:00 +13°C° 0 mm 4 mps 741 mmHg 66%
    02:00 +13°C° 0 mm 4 mps 741 mmHg 69%
    03:00 +12°C° 0 mm 4 mps 740 mmHg 71%
    04:00 +12°C° 0 mm 4 mps 740 mmHg 73%
    05:00 +12°C° 0 mm 4 mps 739 mmHg 75%
    06:00 +13°C° 0 mm 5 mps 739 mmHg 72%
    07:00 +13°C° 0 mm 5 mps 739 mmHg 70%
    08:00 +14°C° 0 mm 6 mps 738 mmHg 67%
    09:00 +15°C° 0 mm 6 mps 738 mmHg 62%
    10:00 +16°C° 0 mm 6 mps 738 mmHg 57%
    11:00 +19°C° 0 mm 6 mps 737 mmHg 51%
    12:00 +19°C° 0 mm 5 mps 737 mmHg 52%
    13:00 +17°C° 0 mm 5 mps 737 mmHg 52%
    14:00 +18°C° 0 mm 4 mps 736 mmHg 53%
    15:00 +18°C° 0 mm 4 mps 736 mmHg 57%
    16:00 +17°C° 0 mm 4 mps 736 mmHg 60%
    17:00 +15°C° 0 mm 5 mps 736 mmHg 64%
    18:00 +14°C° 0 mm 4 mps 737 mmHg 67%
    19:00 +13°C° 0 mm 4 mps 737 mmHg 70%
    20:00 +12°C° 0 mm 4 mps 737 mmHg 72%
    21:00 +11°C° 0 mm 4 mps 737 mmHg 68%
    22:00 +11°C° 0 mm 4 mps 738 mmHg 65%
    23:00 +11°C° 0 mm 4 mps 738 mmHg 61%

    29 September, Saturday

    Time Temperature Precipitation Wind Pressure Humidity
    00:00 +9°C° 0 mm 5 mps 739 mmHg 64%
    01:00 +8°C° 0 mm 5 mps 739 mmHg 68%
    02:00 +7°C° 0 mm 5 mps 739 mmHg 71%
    03:00 +7°C° 0 mm 5 mps 740 mmHg 72%
    04:00 +6°C° 0 mm 4 mps 740 mmHg 74%
    05:00 +6°C° 0 mm 4 mps 741 mmHg 75%
    06:00 +6°C° 0 mm 4 mps 741 mmHg 73%
    07:00 +6°C° 0 mm 4 mps 742 mmHg 71%
    08:00 +7°C° 0 mm 4 mps 742 mmHg 69%
    09:00 +8°C° 0 mm 5 mps 742 mmHg 62%
    10:00 +10°C° 0 mm 6 mps 742 mmHg 55%
    11:00 +11°C° 0 mm 7 mps 742 mmHg 47%
    12:00 +12°C° 0 mm 8 mps 742 mmHg 45%
    13:00 +13°C° 0 mm 8 mps 741 mmHg 44%
    14:00 +15°C° 0 mm 9 mps 741 mmHg 42%
    15:00 +13°C° 0 mm 8 mps 740 mmHg 44%
    16:00 +13°C° 0 mm 8 mps 740 mmHg 47%
    17:00 +14°C° 0 mm 7 mps 740 mmHg 49%
    18:00 +12°C° 0 mm 7 mps 740 mmHg 50%
    19:00 +12°C° 0 mm 7 mps 740 mmHg 52%
    20:00 +11°C° 0 mm 7 mps 740 mmHg 53%
    21:00 +11°C° 0 mm 7 mps 740 mmHg 55%
    22:00 +11°C° 0 mm 6 mps 741 mmHg 56%
    23:00 +11°C° 0 mm 6 mps 741 mmHg 58%

    30 September, Sunday

    Time Temperature Precipitation Wind Pressure Humidity
    00:00 +10°C° 0 mm 5 mps 742 mmHg 61%
    01:00 +8°C° 0 mm 4 mps 742 mmHg 64%
    02:00 +8°C° 0 mm 3 mps 743 mmHg 67%
    03:00 +7°C° 0 mm 3 mps 743 mmHg 68%
    04:00 +5°C° 0 mm 3 mps 744 mmHg 68%
    05:00 +4°C° 0 mm 3 mps 744 mmHg 69%
    06:00 +4°C° 0 mm 3 mps 745 mmHg 68%
    07:00 +5°C° 0 mm 3 mps 745 mmHg 67%
    08:00 +5°C° 0 mm 3 mps 745 mmHg 65%
    09:00 +7°C° 0 mm 3 mps 745 mmHg 58%
    10:00 +9°C° 0 mm 3 mps 746 mmHg 51%
    11:00 +10°C° 0 mm 3 mps 746 mmHg 44%
    12:00 +11°C° 0 mm 3 mps 746 mmHg 40%
    13:00 +12°C° 0 mm 3 mps 746 mmHg 36%
    14:00 +13°C° 0 mm 3 mps 745 mmHg 33%
    15:00 +14°C° 0 mm 2 mps 745 mmHg 35%
    16:00 +14°C° 0 mm 1 mps 745 mmHg 38%
    17:00 +13°C° 0 mm 1 mps 745 mmHg 40%
    18:00 +12°C° 0 mm 1 mps 745 mmHg 42%
    19:00 +11°C° 0 mm 1 mps 745 mmHg 43%
    20:00 +10°C° 0 mm 1 mps 745 mmHg 45%
    21:00 +10°C° 0 mm 1 mps 745 mmHg 46%
    22:00 +9°C° 0 mm 2 mps 744 mmHg 47%
    23:00 +9°C° 0 mm 2 mps 744 mmHg 48%
    Show more